Regional Weather Roundup
Issued by NWS Upton, NY

Current Version | Previous Version | Graphics & Text | Print | Product List | Glossary Off
Versions: 1 2 3 4 5 6 7 8 9 10 11 12 13 14 15 16 17 18 19 20 21 22 23 24 25 26 27 28 29 30 31 32 33 34 35 36 37 38 39 40 41 42 43 44 45 46 47 48 49 50

000
ASUS41 KOKX 040704
RWROKX

REGIONAL WEATHER ROUNDUP
NATIONAL WEATHER SERVICE NEW YORK NY
300 AM EDT FRI SEP 04 2015

NOTE: "FAIR" INDICATES FEW OR NO CLOUDS BELOW 12,000 FEET WITH NO
SIGNIFICANT WEATHER AND/OR OBSTRUCTIONS TO VISIBILITY.

NYZ071-072-176-178-NJZ106-104-040800-
NEW YORK CITY METRO AREA


CITY           SKY/WX    TMP DP  RH WIND       PRES   REMARKS
CENTRAL PARK   PTCLDY    80  65  59 VRB3      29.94S
LAGUARDIA APRT MOCLDY    79  66  64 NE7       29.90S
KENNEDY INTL   MOCLDY    77  69  76 NE5       29.91S
NEWARK/LIBERTY MOCLDY    79  66  64 N10       29.91S
BRNX BOT. GARD   N/A     75  64  69 NW2       29.94R
TETERBORO      PTCLDY    77  65  66 N6        29.90S
$$

NYZ177-179-078>081-040800-
LONG ISLAND NEW YORK

CITY           SKY/WX    TMP DP  RH WIND       PRES   REMARKS
FARMINGDALE    PTCLDY    74  68  81 NE3       29.91S
ISLIP          PTCLDY    72  68  87 CALM      29.90S FOG
SHIRLEY        PTCLDY    70  68  93 CALM      29.92S FOG
WESTHAMPTON    PTCLDY    67  65  93 N3        29.93R FOG
MONTAUK POINT    N/A     71  70  96 CALM      29.93S
$$

NYZ052-065-067-040800-
HUDSON VALLEY

CITY           SKY/WX    TMP DP  RH WIND       PRES   REMARKS
WHITE PLAINS   CLEAR     72  66  81 NW3       29.93S
NEWBURGH       CLEAR     72  68  88 VRB6      29.97S
MONTGOMERY     CLEAR     71  67  87 NE6       29.96S
POUGHKEEPSIE   CLEAR     70  66  87 CALM      29.94F
ALBANY         PTCLDY    68  57  68 N5        29.99R
$$

NJZ001-105-106-008-010-013-015-019>022-104-040800-
NEW JERSEY

CITY           SKY/WX    TMP DP  RH WIND       PRES   REMARKS
NEWARK/LIBERTY MOCLDY    79  66  64 N10       29.91S
TETERBORO      PTCLDY    77  65  66 N6        29.90S
CALDWELL       PTCLDY    75  66  73 NE3       29.93S
MORRISTOWN     PTCLDY    66  63  88 CALM      29.93R FOG
SOMERVILLE     MOCLDY    73  68  84 N3        29.90S
SUSSEX         PTCLDY    68  65  90 CALM      29.96S
ANDOVER          N/A     70  68  93 CALM      29.96S
TRENTON        MOCLDY    73  67  81 CALM      29.90F
MILLVILLE      MOCLDY    69  68  96 CALM      29.89S FOG
ATLANTIC CITY  PTCLDY    69  67  93 CALM      29.89F FOG
WRIGHTSTOWN    MOCLDY    69  69  99 NE2       29.88S
TOMS RIVER     PTCLDY    66  61  82 CALM      29.91S
BELMAR         PTCLDY    73  63  68 N5        29.91S
$$

PAZ047>061-062-071-040800-
EASTERN PENNSYLVANIA

CITY           SKY/WX    TMP DP  RH WIND       PRES   REMARKS
PHILADELPHIA   CLOUDY    78  70  76 CALM      29.90S
ALLENTOWN      PTCLDY    71  66  84 CALM      29.94S
SCRANTON       CLEAR     69  65  86 E6        29.98S
$$

CTZ002-004>006-009-010-012-RIZ004-006-007-MAZ004-011-015-040800-
SOUTHERN NEW ENGLAND
 IN CT

CITY           SKY/WX    TMP DP  RH WIND       PRES   REMARKS
BRADLEY INTL   CLEAR     71  66  84 N7        29.94R
HARTFORD       CLEAR     74  69  85 N6        29.93S
DANBURY        CLEAR     67  62  84 SW3       29.96R
WTRBRY/OXFORD  CLEAR     73  63  68 NE10      29.97R
BRIDGEPORT     CLEAR     75  68  78 N7        29.92R
MERIDEN        CLEAR     75  67  76 N6        29.93S
NEW HAVEN      CLEAR     74  68  81 N13       29.92R
CHESTER        NOT AVBL
GROTON         CLEAR     70  70 100 CALM      29.92R FOG
WILLIMANTIC    PTCLDY    70  67  90 N5        29.94S

 IN RI

CITY           SKY/WX    TMP DP  RH WIND       PRES   REMARKS
PROVIDENCE     PTCLDY    73  68  84 NE8       29.94R
BLOCK ISLAND   CLOUDY    70  70 100 NE5       29.93S VSB 1/4
WESTERLY       CLEAR     71  69  93 CALM      29.93S FOG

 IN MA

CITY           SKY/WX    TMP DP  RH WIND       PRES   REMARKS
BOSTON         CLOUDY    72  69  90 N6        29.96R
WORCESTER      CLEAR     70  65  84 N6        29.99S
WESTFIELD      CLEAR     69  65  86 N7        29.96R
PROVINCETOWN     N/A     70  64  83 NE8       29.95R
NANTUCKET        N/A    N/A N/A N/A MISG        N/A
$$

ANZ330-335-338-340-345-350-353-355-040800-
COASTAL MARINE OBSERVATIONS


STATION/POSITION TIME  SKY/WX   TEMP    WIND        PRES    VSBY  WAVE
                                AIR SEA DIR/SP/G                  HT/PER
                 (UTC)          (F)     (DEG/KT/KT) (MB)    (MI)  (FT/S)
NY HARB ENTRANCE 0550            77 78  310/  4/  4 1012.3          1/ 6
4S FIRE IS       NOT AVBL
20S FIRE ISLAND  0550            76 76   20/  2/  2 1012.2          1/13
GREAT SOUTH BAY  0630            77 80  350/  4/  6   N/A
23SW MTP         0650            74 74   CALM  /  2 1012.6          1/11
HUDSON CANYON    NOT AVBL
KINGS POINT      0600            76 75   50/  4/  5 1012.1
EXECUTION ROCKS  0600            76      20/  4/  6   N/A
CENTRAL LI SOUND NOT AVBL
EASTERN LI SOUND 0600            72 71   60/  4/  6   N/A
ROBBINS REEF     0600            80     350/  6/  8 1011.4
$$


>>>>>>>>>>>>>>>>>>>>>>>>>>>> KEY <<<<<<<<<<<<<<<<<<<<<<<<<<<
>                                                          <
>     SKY/WX - SKY CONDITION/PRESENT WEATHER               <
>     TMP    - TEMPERATURE IN FAHRENHEIT                   <
>     DP     - DEWPOINT IN FAHRENHEIT                      <
>     RH     - RELATIVE HUMIDITY IN PERCENT                <
>     WIND   - DIRECTION AND SPEED IN MPH                  <
>     PRES   - MEAN SEA LEVEL PRESSURE IN INCHES OF HG     <
>     WCI    - WIND CHILL INDEX                            <
>     VSB    - VISIBILITY IN MILES                         <
>     HX     - HEAT INDEX                                  <
>     TC     - TEMPERATURE IN CELSIUS                      <
>     VRB    - VARIABLE WIND DIRECTION                     <
>                                                          <
>>>>>>>>>>>>>>>>>>>>>>>>>>>> KEY <<<<<<<<<<<<<<<<<<<<<<<<<<<




USA.gov is the U.S. government's official web portal to all federal, state and local government web resources and services.